Tracking 29892 objects as of 21-Nov-2024
HD Live streaming from Space Station
objects crossing your sky now

CZ-4B DEB

Track CZ-4B DEB now!
10-day predictions


NORAD ID: 46480
Int'l Code: 2020-067C
Perigee: 546.5 km
Apogee: 580.7 km
Inclination: 97.9 °
Period: 95.8 minutes
Semi major axis: 6934 km
RCS: Unknown
Launch date: September 27, 2020
Source: People's Republic of China (PRC)
Launch site: Taiyaun Space Center, China (TSC)

Note: This is SATELLITE DEBRIS
Your satellite tracking list
Your tracking list is empty




NASA's NSSDC Master Catalog

Two Line Element Set (TLE):
1 46480U 20067C   24325.19659075  .00025042  00000-0  18294-2 0  9994
2 46480  97.8838  55.3975 0024642 105.8288 254.5656 15.03389834224983
Source of the keplerian elements: AFSPC